Weather History for Madrid Cuatro Vientos, Spain

Change the Weather History Date:

Monday, April 1, 2013

  Actual Average Record
Temperature  
Mean Temperature 50 °F -  
Max Temperature 57 °F 61 °F 77 °F (2011)
Min Temperature 44 °F 43 °F 35 °F (2009)
Degree Days  
Heating Degree Days 14    
Moisture  
Dew Point 42 °F    
Average Humidity 76    
Maximum Humidity 100    
Minimum Humidity 47    
Precipitation  
Precipitation 0.00 in - - ()
Sea Level Pressure  
Sea Level Pressure 29.66 in    
Wind  
Wind Speed 11 mph ()    
Max Wind Speed 23 mph    
Max Gust Speed 34 mph    
Visibility 6.2 miles    
Events Rain    
Averages and records for this station are not official NWS values.
T = Trace of Precipitation, MM = Missing Value Source: Averaged Metar Reports

Daily Weather History Graph

Daily Weather History Graph

Search for Another Location

Airport:

Trip Planner

Search our weather history database for the weather conditions in past years. The results will help you decide how hot, cold, wet, or windy it might be!

Date:

Astronomy

Apr. 01, 2013 Rise Set
Actual Time 7:58 AM CEST 8:39 PM CEST
Civil Twilight 7:31 AM CEST 9:07 PM CEST
Nautical Twilight 6:58 AM CEST 9:39 PM CEST
Astronomical Twilight 6:25 AM CEST 10:13 PM CEST
Moon 1:34 AM CEST (4/1) 11:30 AM CEST (4/1)
Length of Visible Light 13h 35m
Length of Day
12h 40m
Waning Gibbous, 70% of the Moon is Illuminated
Apr 1
Waning Gibbous
Apr 3
Last Quarter
Apr 10
New
Apr 18
First Quarter
Apr 25
Full

Hourly Weather History & Observations

Time (CEST) Temp. Windchill Dew Point Humidity Pressure Visibility Wind Dir Wind Speed Gust Speed Precip Events Conditions
7:00 AM 46.4 °F 41.9 °F 44.6 °F 93% 29.56 in 6.2 mi WSW 9.2 mph - N/A   Scattered Clouds
7:30 AM 46.4 °F 41.9 °F 46.4 °F 100% 29.56 in 6.2 mi WSW 9.2 mph - N/A   Scattered Clouds
8:00 AM 46.4 °F 40.7 °F 42.8 °F 87% 29.56 in 6.2 mi WSW 12.7 mph - N/A   Scattered Clouds
8:30 AM 44.6 °F 40.2 °F 41.0 °F 87% 29.59 in 6.2 mi WSW 8.1 mph - N/A   Scattered Clouds
9:00 AM 46.4 °F 41.5 °F 44.6 °F 93% 29.59 in 6.2 mi WSW 10.4 mph - N/A   Scattered Clouds
9:30 AM 48.2 °F - 46.4 °F 93% 29.62 in 6.2 mi West 9.2 mph - N/A   Scattered Clouds
10:00 AM 50.0 °F - 42.8 °F 76% 29.62 in 6.2 mi WSW 12.7 mph - N/A   Scattered Clouds
10:30 AM 50.0 °F - 44.6 °F 82% 29.62 in 6.2 mi WSW 15.0 mph - N/A   Scattered Clouds
11:00 AM 50.0 °F - 41.0 °F 71% 29.65 in 6.2 mi WSW 13.8 mph - N/A   Scattered Clouds
11:30 AM 50.0 °F - 39.2 °F 66% 29.65 in 6.2 mi West 15.0 mph - N/A   Mostly Cloudy
12:30 PM 53.6 °F - 37.4 °F 54% 29.68 in 6.2 mi West 18.4 mph - N/A   Mostly Cloudy
1:00 PM 51.8 °F - 33.8 °F 50% 29.68 in 6.2 mi West 17.3 mph - N/A   Mostly Cloudy
1:30 PM 53.6 °F - 33.8 °F 47% 29.68 in 6.2 mi WNW 15.0 mph - N/A   Mostly Cloudy
2:00 PM 53.6 °F - 37.4 °F 54% 29.68 in 6.2 mi WSW 13.8 mph - N/A   Mostly Cloudy
2:30 PM 55.4 °F - 41.0 °F 58% 29.68 in 6.2 mi WSW 16.1 mph - N/A   Mostly Cloudy
3:00 PM 55.4 °F - 41.0 °F 58% 29.65 in 6.2 mi SW 13.8 mph - N/A   Mostly Cloudy
3:30 PM 57.2 °F - 42.8 °F 59% 29.65 in 6.2 mi WSW 17.3 mph - N/A   Mostly Cloudy
4:00 PM 55.4 °F - 41.0 °F 58% 29.65 in 6.2 mi WSW 16.1 mph - N/A   Mostly Cloudy
4:30 PM 51.8 °F - 42.8 °F 71% 29.68 in 6.2 mi WSW 19.6 mph - N/A   Mostly Cloudy
5:00 PM 51.8 °F - 42.8 °F 71% 29.68 in 6.2 mi West 10.4 mph - N/A   Mostly Cloudy
5:30 PM 48.2 °F - 46.4 °F 93% 29.68 in 6.2 mi WSW 4.6 mph - N/A Rain Light Rain
6:30 PM 53.6 °F - 42.8 °F 67% 29.68 in 6.2 mi WSW 19.6 mph - N/A   Scattered Clouds
6:43 PM 48.2 °F - 39.2 °F 71% 29.68 in 6.2 mi NW 16.1 mph - N/A Rain Light Rain
7:00 PM 46.4 °F 41.9 °F 42.8 °F 87% 29.68 in 6.2 mi WNW 9.2 mph - N/A   Mostly Cloudy
7:30 PM 48.2 °F - 42.8 °F 82% 29.71 in 6.2 mi West 23.0 mph 34.5 mph N/A   Mostly Cloudy
8:00 PM 46.4 °F 39.0 °F 42.8 °F 87% 29.71 in 6.2 mi West 19.6 mph - N/A Rain Rain
8:30 PM 46.4 °F 40.4 °F 42.8 °F 87% 29.71 in 6.2 mi WSW 13.8 mph - N/A   Mostly Cloudy
9:00 PM 46.4 °F 41.9 °F 42.8 °F 87% 29.71 in 6.2 mi West 9.2 mph - N/A   Mostly Cloudy
9:30 PM 44.6 °F 39.2 °F 42.8 °F 93% 29.74 in 6.2 mi West 10.4 mph - N/A   Mostly Cloudy
10:00 PM 44.6 °F 38.8 °F 41.0 °F 87% 29.74 in 6.2 mi West 11.5 mph - N/A   Scattered Clouds
10:30 PM 44.6 °F 40.2 °F 41.0 °F 87% 29.77 in 6.2 mi West 8.1 mph - N/A   Partly Cloudy